Hourly Weather Barra de Santo Antonio

Today, 6 May, Thursday

Time Temperature Precipitation Wind Pressure Humidity
00:00 +25°C° 0.2 mm 3 mps 758 mmHg 93%
01:00 +25°C° 0.2 mm 3 mps 758 mmHg 94%
02:00 +25°C° 0.2 mm 2 mps 757 mmHg 93%
03:00 +25°C° 0.2 mm 2 mps 757 mmHg 92%
04:00 +25°C° 0 mm 2 mps 757 mmHg 91%
05:00 +25°C° 0 mm 2 mps 757 mmHg 91%
06:00 +25°C° 0 mm 2 mps 757 mmHg 90%
07:00 +25°C° 0 mm 1 mps 758 mmHg 90%
08:00 +26°C° 0.1 mm 2 mps 758 mmHg 83%
09:00 +28°C° 0.1 mm 2 mps 758 mmHg 76%
10:00 +30°C° 0.1 mm 2 mps 759 mmHg 69%
11:00 +30°C° 0.3 mm 2 mps 758 mmHg 69%
12:00 +30°C° 0.3 mm 2 mps 758 mmHg 68%
13:00 +30°C° 0.3 mm 3 mps 757 mmHg 68%
14:00 +30°C° 0.1 mm 3 mps 757 mmHg 68%
15:00 +30°C° 0.1 mm 3 mps 757 mmHg 69%
16:00 +30°C° 0.1 mm 3 mps 756 mmHg 69%
17:00 +29°C° 0 mm 3 mps 757 mmHg 75%
18:00 +27°C° 0 mm 3 mps 757 mmHg 80%
19:00 +26°C° 0 mm 2 mps 757 mmHg 86%
20:00 +26°C° 0.1 mm 2 mps 758 mmHg 87%
21:00 +25°C° 0.1 mm 2 mps 758 mmHg 88%
22:00 +25°C° 0.1 mm 2 mps 759 mmHg 89%
23:00 +25°C° 0 mm 2 mps 759 mmHg 90%

Tomorrow, 7 May, Friday

Time Temperature Precipitation Wind Pressure Humidity
00:00 +25°C° 0 mm 1 mps 759 mmHg 91%
01:00 +25°C° 0 mm 1 mps 758 mmHg 91%
02:00 +24°C° 0.2 mm 1 mps 758 mmHg 92%
03:00 +24°C° 0.2 mm 1 mps 758 mmHg 93%
04:00 +24°C° 0.2 mm 1 mps 758 mmHg 93%
05:00 +24°C° 0.1 mm 1 mps 758 mmHg 93%
06:00 +24°C° 0.1 mm 1 mps 758 mmHg 92%
07:00 +24°C° 0.1 mm 1 mps 759 mmHg 92%
08:00 +26°C° 0.1 mm 1 mps 759 mmHg 86%
09:00 +28°C° 0.1 mm 1 mps 759 mmHg 80%
10:00 +29°C° 0.1 mm 1 mps 760 mmHg 74%
11:00 +30°C° 0.3 mm 2 mps 759 mmHg 73%
12:00 +30°C° 0.3 mm 2 mps 759 mmHg 73%
13:00 +30°C° 0.3 mm 3 mps 759 mmHg 72%
14:00 +30°C° 0.1 mm 3 mps 758 mmHg 71%
15:00 +30°C° 0.1 mm 3 mps 758 mmHg 71%
16:00 +30°C° 0.1 mm 3 mps 757 mmHg 71%
17:00 +29°C° 0 mm 3 mps 758 mmHg 76%
18:00 +27°C° 0 mm 3 mps 758 mmHg 82%
19:00 +26°C° 0 mm 3 mps 758 mmHg 87%
20:00 +26°C° 0 mm 2 mps 759 mmHg 88%
21:00 +26°C° 0 mm 2 mps 759 mmHg 88%
22:00 +25°C° 0 mm 2 mps 760 mmHg 89%
23:00 +25°C° 0 mm 2 mps 760 mmHg 89%

Day after tomorrow, 8 May, Saturday

Time Temperature Precipitation Wind Pressure Humidity
00:00 +25°C° 0 mm 2 mps 759 mmHg 90%
01:00 +25°C° 0 mm 2 mps 759 mmHg 90%
02:00 +24°C° 0 mm 2 mps 759 mmHg 91%
03:00 +24°C° 0 mm 1 mps 759 mmHg 91%
04:00 +24°C° 0 mm 1 mps 759 mmHg 92%
05:00 +24°C° 0 mm 1 mps 759 mmHg 92%
06:00 +24°C° 0 mm 1 mps 759 mmHg 92%
07:00 +24°C° 0 mm 1 mps 759 mmHg 92%
08:00 +26°C° 0 mm 2 mps 760 mmHg 83%
09:00 +28°C° 0 mm 2 mps 760 mmHg 73%
10:00 +30°C° 0 mm 2 mps 760 mmHg 64%
11:00 +31°C° 0 mm 2 mps 760 mmHg 61%
12:00 +31°C° 0 mm 2 mps 760 mmHg 57%
13:00 +32°C° 0 mm 2 mps 759 mmHg 53%
14:00 +32°C° 0 mm 2 mps 759 mmHg 56%
15:00 +31°C° 0 mm 3 mps 758 mmHg 60%
16:00 +30°C° 0 mm 3 mps 758 mmHg 63%
17:00 +29°C° 0 mm 3 mps 758 mmHg 70%
18:00 +27°C° 0 mm 3 mps 759 mmHg 77%
19:00 +26°C° 0 mm 2 mps 759 mmHg 84%
20:00 +25°C° 0 mm 2 mps 759 mmHg 85%
21:00 +25°C° 0 mm 2 mps 759 mmHg 86%
22:00 +25°C° 0 mm 2 mps 759 mmHg 87%
23:00 +25°C° 0 mm 2 mps 759 mmHg 89%

9 May, Sunday

Time Temperature Precipitation Wind Pressure Humidity
00:00 +25°C° 0 mm 2 mps 759 mmHg 91%
01:00 +24°C° 0 mm 2 mps 759 mmHg 93%
02:00 +24°C° 0.4 mm 2 mps 759 mmHg 94%
03:00 +24°C° 0.4 mm 2 mps 758 mmHg 95%
04:00 +24°C° 0.4 mm 2 mps 758 mmHg 96%
05:00 +24°C° 0.6 mm 2 mps 758 mmHg 95%
06:00 +24°C° 0.6 mm 2 mps 758 mmHg 94%
07:00 +25°C° 0.6 mm 2 mps 759 mmHg 93%
08:00 +26°C° 0.7 mm 2 mps 759 mmHg 86%
09:00 +28°C° 0.7 mm 3 mps 759 mmHg 78%
10:00 +30°C° 0.7 mm 4 mps 759 mmHg 70%
11:00 +30°C° 1.1 mm 4 mps 759 mmHg 70%
12:00 +30°C° 1.1 mm 5 mps 759 mmHg 71%
13:00 +30°C° 1.1 mm 5 mps 758 mmHg 71%
14:00 +30°C° 0.2 mm 5 mps 758 mmHg 69%
15:00 +30°C° 0.2 mm 4 mps 758 mmHg 68%
16:00 +30°C° 0.2 mm 4 mps 757 mmHg 67%
17:00 +29°C° 0.6 mm 4 mps 757 mmHg 75%
18:00 +27°C° 0.6 mm 3 mps 758 mmHg 84%
19:00 +26°C° 0.6 mm 3 mps 758 mmHg 92%
20:00 +25°C° 0.5 mm 3 mps 758 mmHg 93%
21:00 +25°C° 0.5 mm 3 mps 759 mmHg 93%
22:00 +25°C° 0.5 mm 3 mps 759 mmHg 93%
23:00 +25°C° 0.7 mm 3 mps 759 mmHg 94%

10 May, Monday

Time Temperature Precipitation Wind Pressure Humidity
00:00 +25°C° 0.7 mm 3 mps 759 mmHg 95%
01:00 +24°C° 0.7 mm 3 mps 758 mmHg 96%
02:00 +24°C° 1 mm 3 mps 758 mmHg 96%
03:00 +24°C° 1 mm 3 mps 758 mmHg 96%
04:00 +24°C° 1 mm 3 mps 758 mmHg 97%
05:00 +24°C° 0.8 mm 3 mps 758 mmHg 96%
06:00 +24°C° 0.8 mm 3 mps 758 mmHg 95%
07:00 +24°C° 0.8 mm 3 mps 758 mmHg 95%
08:00 +26°C° 0.3 mm 3 mps 759 mmHg 88%
09:00 +28°C° 0.3 mm 3 mps 759 mmHg 81%
10:00 +29°C° 0.3 mm 4 mps 759 mmHg 74%
11:00 +29°C° 1.2 mm 4 mps 759 mmHg 76%
12:00 +29°C° 1.2 mm 4 mps 758 mmHg 78%
13:00 +29°C° 1.2 mm 5 mps 758 mmHg 80%
14:00 +29°C° 0.9 mm 5 mps 757 mmHg 81%
15:00 +28°C° 0.9 mm 5 mps 757 mmHg 83%
16:00 +28°C° 0.9 mm 5 mps 757 mmHg 85%
17:00 +27°C° 1.3 mm 5 mps 757 mmHg 88%
18:00 +26°C° 1.3 mm 4 mps 757 mmHg 91%
19:00 +25°C° 1.3 mm 4 mps 758 mmHg 94%
20:00 +25°C° 1.3 mm 4 mps 758 mmHg 94%
21:00 +25°C° 1.3 mm 4 mps 758 mmHg 95%
22:00 +25°C° 1.3 mm 4 mps 759 mmHg 95%
23:00 +23°C° 1.8 mm 4 mps 759 mmHg 96%

11 May, Tuesday

Time Temperature Precipitation Wind Pressure Humidity
00:00 +23°C° 1.8 mm 4 mps 758 mmHg 96%
01:00 +23°C° 1.8 mm 4 mps 758 mmHg 96%
02:00 +23°C° 1.3 mm 4 mps 758 mmHg 96%
03:00 +23°C° 1.3 mm 4 mps 758 mmHg 96%
04:00 +23°C° 1.3 mm 4 mps 757 mmHg 96%
05:00 +23°C° 0.7 mm 4 mps 758 mmHg 96%
06:00 +23°C° 0.7 mm 4 mps 758 mmHg 96%
07:00 +23°C° 0.7 mm 5 mps 758 mmHg 96%
08:00 +25°C° 0.9 mm 5 mps 758 mmHg 93%
09:00 +26°C° 0.9 mm 6 mps 759 mmHg 91%
10:00 +28°C° 0.9 mm 6 mps 759 mmHg 88%
11:00 +28°C° 1.1 mm 6 mps 758 mmHg 88%
12:00 +28°C° 1.1 mm 6 mps 758 mmHg 89%
13:00 +28°C° 1.1 mm 6 mps 758 mmHg 89%
14:00 +28°C° 1.3 mm 6 mps 757 mmHg 89%
15:00 +27°C° 1.3 mm 6 mps 757 mmHg 90%
16:00 +27°C° 1.3 mm 6 mps 757 mmHg 91%
17:00 +26°C° 1.1 mm 6 mps 757 mmHg 92%
18:00 +26°C° 1.1 mm 6 mps 758 mmHg 93%
19:00 +24°C° 1.1 mm 6 mps 758 mmHg 94%
20:00 +25°C° 1.2 mm 5 mps 758 mmHg 94%
21:00 +25°C° 1.2 mm 5 mps 758 mmHg 95%
22:00 +25°C° 1.2 mm 5 mps 759 mmHg 95%
23:00 +25°C° 1.5 mm 5 mps 759 mmHg 96%
Show more